Weather History for Milwaukee Timmerman, WI

Change the Weather History Date:

Friday, December 7, 2012

  Actual Average Record
Temperature  
Mean Temperature 37 °F -  
Max Temperature 41 °F 34 °F 55 °F (1963)
Min Temperature 33 °F 21 °F -9 °F (1972)
Degree Days  
Heating Degree Days 28    
Moisture  
Dew Point 31 °F    
Average Humidity 81    
Maximum Humidity 87    
Minimum Humidity 70    
Precipitation  
Precipitation 0.00 in - - ()
Sea Level Pressure  
Sea Level Pressure 29.94 in    
Wind  
Wind Speed 5 mph (NNW)    
Max Wind Speed 10 mph    
Max Gust Speed -    
Visibility 10 miles    
Events      
Averages and records for this station are not official NWS values.
T = Trace of Precipitation, MM = Missing Value Source: NWS Daily Summary

Daily Weather History Graph

Daily Weather History Graph

Search for Another Location

Airport:

Trip Planner

Search our weather history database for the weather conditions in past years. The results will help you decide how hot, cold, wet, or windy it might be!

Date:

Astronomy

Dec. 07, 2012 Rise Set
Actual Time 7:10 AM CST 4:16 PM CST
Civil Twilight 6:38 AM CST 4:49 PM CST
Nautical Twilight 6:02 AM CST 5:24 PM CST
Astronomical Twilight 5:28 AM CST 5:59 PM CST
Moon 12:20 AM CST (12/7) 12:21 PM CST (12/7)
Length of Visible Light 10h 10m
Length of Day
9h 06m
Last Quarter, 38% of the Moon is Illuminated
Dec 7
Last Quarter
Dec 13
New
Dec 19
First Quarter
Dec 28
Full
Jan 4
Last Quarter

Hourly Weather History & Observations

Time (CST) Temp. Windchill Dew Point Humidity Pressure Visibility Wind Dir Wind Speed Gust Speed Precip Events Conditions
12:15 AM 41.0 °F 37.1 °F 33.8 °F 76% 29.91 in 10.0 mi West 5.8 mph - N/A   Clear
12:35 AM 39.2 °F 35.9 °F 33.8 °F 81% 29.91 in 10.0 mi WNW 4.6 mph - N/A   Clear
12:55 AM 37.4 °F 33.8 °F 33.8 °F 87% 29.91 in 10.0 mi West 4.6 mph - N/A   Clear
1:15 AM 37.4 °F 33.8 °F 33.8 °F 87% 29.91 in 10.0 mi West 4.6 mph - N/A   Clear
1:35 AM 37.4 °F 34.9 °F 33.8 °F 87% 29.91 in 10.0 mi West 3.5 mph - N/A   Clear
1:55 AM 37.4 °F 32.8 °F 33.8 °F 87% 29.92 in 10.0 mi WNW 5.8 mph - N/A   Scattered Clouds
2:15 AM 37.4 °F 32.8 °F 32.0 °F 81% 29.92 in 10.0 mi WNW 5.8 mph - N/A   Clear
2:35 AM 37.4 °F 34.9 °F 32.0 °F 81% 29.93 in 10.0 mi WNW 3.5 mph - N/A   Scattered Clouds
2:55 AM 35.6 °F 31.7 °F 32.0 °F 87% 29.92 in 10.0 mi WNW 4.6 mph - N/A   Overcast
3:15 AM 35.6 °F 31.7 °F 32.0 °F 87% 29.93 in 10.0 mi WNW 4.6 mph - N/A   Overcast
3:35 AM 35.6 °F 31.7 °F 30.2 °F 81% 29.92 in 10.0 mi WNW 4.6 mph - N/A   Overcast
3:55 AM 35.6 °F 32.8 °F 30.2 °F 81% 29.93 in 10.0 mi WNW 3.5 mph - N/A   Overcast
4:15 AM 35.6 °F - 30.2 °F 81% 29.93 in 10.0 mi Calm Calm - N/A   Overcast
4:35 AM 35.6 °F - 30.2 °F 81% 29.93 in 10.0 mi Calm Calm - N/A   Overcast
4:55 AM 35.6 °F 32.8 °F 30.2 °F 81% 29.93 in 10.0 mi WNW 3.5 mph - N/A   Scattered Clouds
5:15 AM 35.6 °F 32.8 °F 30.2 °F 81% 29.94 in 10.0 mi NW 3.5 mph - N/A   Mostly Cloudy
5:35 AM 35.6 °F 30.7 °F 30.2 °F 81% 29.94 in 10.0 mi NW 5.8 mph - N/A   Mostly Cloudy
5:55 AM 35.6 °F 30.7 °F 30.2 °F 81% 29.94 in 10.0 mi NNW 5.8 mph - N/A   Mostly Cloudy
7:45 AM 35.6 °F 30.7 °F 28.4 °F 75% 29.97 in 10.0 mi North 5.8 mph - N/A   Clear
8:45 AM 35.6 °F 30.7 °F 28.4 °F 75% 29.98 in 10.0 mi North 5.8 mph - N/A   Clear
9:45 AM 35.6 °F 31.7 °F 28.4 °F 75% 29.99 in 10.0 mi NNW 4.6 mph - N/A   Scattered Clouds
10:45 AM 37.4 °F 33.8 °F 28.4 °F 70% 29.98 in 10.0 mi North 4.6 mph - N/A   Clear
11:45 AM 37.4 °F 32.8 °F 28.4 °F 70% 29.96 in 10.0 mi North 5.8 mph - N/A   Mostly Cloudy
12:45 PM 37.4 °F 32.1 °F 28.4 °F 70% 29.95 in 10.0 mi NE 6.9 mph - N/A   Mostly Cloudy
1:45 PM 37.4 °F 32.8 °F 30.2 °F 75% 29.95 in 10.0 mi NE 5.8 mph - N/A   Overcast
2:45 PM 37.4 °F 32.1 °F 30.2 °F 75% 29.96 in 10.0 mi NNE 6.9 mph - N/A   Overcast
3:45 PM 37.4 °F 32.1 °F 30.2 °F 75% 29.94 in 10.0 mi NE 6.9 mph - N/A   Overcast
4:45 PM 37.4 °F 30.3 °F 30.2 °F 75% 29.94 in 10.0 mi NNE 10.4 mph - N/A   Overcast
5:45 PM 37.4 °F 32.1 °F 30.2 °F 75% 29.94 in 10.0 mi North 6.9 mph - N/A   Overcast
6:45 PM 35.6 °F 28.6 °F 30.2 °F 81% 29.94 in 10.0 mi NNE 9.2 mph - N/A   Overcast
7:45 PM 35.6 °F 30.7 °F 30.2 °F 81% 29.95 in 10.0 mi North 5.8 mph - N/A   Overcast
8:15 PM 35.6 °F 28.6 °F 30.2 °F 81% 29.95 in 10.0 mi North 9.2 mph - N/A   Overcast
8:35 PM 35.6 °F 29.2 °F 30.2 °F 81% 29.95 in 10.0 mi North 8.1 mph - N/A   Overcast
8:45 PM 35.6 °F 30.7 °F 28.4 °F 75% 29.95 in 10.0 mi North 5.8 mph - N/A   Overcast
8:55 PM 35.6 °F 29.9 °F 30.2 °F 81% 29.94 in 10.0 mi North 6.9 mph - N/A   Overcast
9:15 PM 33.8 °F 28.6 °F 30.2 °F 87% 29.94 in 10.0 mi North 5.8 mph - N/A   Overcast
9:35 PM 33.8 °F 27.0 °F 30.2 °F 87% 29.92 in 10.0 mi North 8.1 mph - N/A   Overcast
9:55 PM 33.8 °F 27.7 °F 30.2 °F 87% 29.92 in 10.0 mi North 6.9 mph - N/A   Overcast
10:15 PM 33.8 °F 27.0 °F 30.2 °F 87% 29.91 in 10.0 mi NNE 8.1 mph - N/A   Overcast
10:35 PM 33.8 °F 29.6 °F 30.2 °F 87% 29.92 in 10.0 mi North 4.6 mph - N/A   Overcast
10:55 PM 33.8 °F 27.7 °F 30.2 °F 87% 29.94 in 10.0 mi NNW 6.9 mph - N/A   Overcast
11:15 PM 33.8 °F 26.4 °F 30.2 °F 87% 29.95 in 10.0 mi NNW 9.2 mph - N/A   Overcast
11:35 PM 33.8 °F 25.8 °F 30.2 °F 87% 29.94 in 10.0 mi North 10.4 mph - N/A   Overcast
11:55 PM 33.8 °F 26.4 °F 30.2 °F 87% 29.93 in 10.0 mi North 9.2 mph - N/A   Overcast